Location: �perlecques
(50.8057°N, 2.1521°E)
Time: 23:32:33
(UTC+00:00)

Nadezhda 1 Rocket - Pass Details

Date: 09 April 2020
Orbit: 940 x 1006 km, 83.0° (Epoch: 27 May)

Event Time Altitude Azimuth Distance (km) Brightness Sun altitude
Rises 19:17:20 0° 177° (S) 3,721 6.8 -6.8°
Reaches altitude 10° 19:19:53 10° 174° (S) 2,772 6.1 -7.2°
Maximum altitude 19:26:11 66° 94° (E) 1,090 4.1 -8.1°
Drops below altitude 10° 19:32:27 10° 14° (NNE) 2,759 6.5 -9.0°
Sets 19:34:58 0° 12° (NNE) 3,703 7.2 -9.3°
